Juan Suárez

Recruteur en chef - Temperley
5 Août 2027
Jeudi
Processus

Personnalité

Adaptabilité (5) Ambition (15) Controverse (11) Loyauté (5) Pression (17) Professionnalisme (16) Sportivité (16) Tempérament (9)

Profil

Style d'entraînement Démocratique
Diplôme Continental C
Détermination 4
Gestion des joueurs 2
Motivation 1
Discipline 1
Satisfaction professionnelle
100%
Fatigue
0%
Rôle Recruteur en chef
Salaire 22.3K p/s
Contrat 14.03.2028

Performance

Comportement Bon
Efficacité de l'entraînement
19%
Développement des joueurs
35%
Prévention des blessures
15%
Mise en place tactique
30%

Événements récents

A participé à une réunion de recrutement 7j
A participé à une réunion de recrutement 14j
A participé à une réunion de recrutement 21j
A participé à une réunion de recrutement 28j
A participé à une réunion de recrutement 35j
A participé à une réunion de recrutement 42j
A participé à une réunion de recrutement 49j
A participé à une réunion de recrutement 56j

Suivi en cours

136
Joueur Club Statut Capacité Confiance Observé Dernière observation Dernier vote
Maurice Malone Minnesota United FC Actif 142 / 132 40% 1 29.11.2026 -
Joaquín Trasante Danubio Actif 119 / 101 40% 1 29.11.2026 -
Matías González Penarol Actif 119 / 114 40% 1 29.11.2026 -
Enzo Vlaeminch Oriental Actif 101 / 97 40% 1 29.11.2026 -
Ismael Cortez Gimnasia y Esgrima Actif 108 / 110 40% 1 28.11.2026 -
Nicolás Retamar Ferro Carril Oeste Actif 121 / 103 40% 2 27.11.2026 -
Daniel Monardes San Luis Actif 106 / 83 40% 1 27.11.2026 -
Facundo Zabala Independiente Actif 125 / 124 40% 1 25.11.2026 -
Cristian Gorgerino Alvarado Actif 109 / 96 40% 1 25.11.2026 -
Franco Martínez Artigas Actif 113 / 107 40% 1 25.11.2026 -
Lautaro Disanto Defensores Unidos Actif 122 / 106 40% 1 23.11.2026 -
Ignacio Rodríguez Racing Club Actif 115 / 133 40% 1 23.11.2026 -
Manuel Mónaco Sarmiento Actif 124 / 109 40% 2 22.11.2026 -
Rodrigo González Mitre Actif 122 / 118 40% 1 22.11.2026 -
Juan Ángel Vera Olimpia Actif 113 / 105 40% 1 19.11.2026 -
Ignacio Neira River Plate Actif 90 / 104 40% 1 19.11.2026 -
Fernando Camarda Central Espanol Actif 95 / 98 40% 1 16.11.2026 -
Mateo Argüello Miramar Misiones Actif 87 / 96 40% 1 15.11.2026 -
Miguel Pernía Carabobo Actif 90 / 99 40% 1 15.11.2026 -
Álex Perdomo Defensor Sporting Actif 99 / 99 40% 1 15.11.2026 -
Rodrigo González Aldosivi Actif 117 / 109 40% 1 15.11.2026 -
Leandro Iglesias San Diego Football Club Actif 112 / 96 40% 1 14.11.2026 -
Jorge Espejo Universidad de Concepcion Actif 124 / 119 40% 1 14.11.2026 -
Alejo Montero Newell's Old Boys Actif 111 / 128 40% 2 13.11.2026 -
Facundo Muñoa Boston River Actif 95 / 116 40% 2 12.11.2026 -
Felipe Espinoza Iquique Actif 93 / 89 40% 1 12.11.2026 -
Gonzalo Gómez Juventud Actif 99 / 121 40% 2 10.11.2026 -
Lautaro Lovazzano Portuguesa Actif 92 / 97 40% 1 10.11.2026 -
Juan Salas Patronato Actif 101 / 107 40% 1 09.11.2026 -
Fernando Souza Atenas Actif 80 / 95 40% 1 09.11.2026 -
Juan Bosca Racing Actif 111 / 101 40% 1 09.11.2026 -
Santiago Sala Güemes Actif 127 / 109 40% 2 07.11.2026 -
Diego Magallanes Defensores Actif 110 / 117 40% 1 06.11.2026 -
Osciel De La Cruz Chiapas Actif 105 / 87 40% 1 06.11.2026 -
Damián Adín San Miguel Actif 102 / 108 40% 1 05.11.2026 -
Samuel Lucero Defensa y Justicia Actif 119 / 115 40% 1 04.11.2026 -
Nicolás Fernandez Universidad de Chile Actif 112 / 114 40% 1 04.11.2026 -
Mauro Martín Progreso Actif 89 / 105 40% 2 02.11.2026 -
Luis Iberico Sporting Cristal Actif 113 / 108 40% 2 02.11.2026 -
Brian Calderara Chacarita Juniors Actif 119 / 113 40% 1 30.10.2026 -
Facundo Waller Huracán Actif 122 / 109 40% 1 30.10.2026 -
César Munder Palestino Actif 109 / 116 40% 2 29.10.2026 -
Facundo Di Biasi Gimnasia La Plata Actif 126 / 119 40% 1 29.10.2026 -
Alex Vigo Independiente Rivadavia Actif 114 / 109 40% 1 29.10.2026 -
Alejo Tabares All Boys Actif 101 / 120 40% 1 29.10.2026 -
Matías Mir Liverpool Montevideo Actif 111 / 112 40% 2 28.10.2026 -
Isaí Valladares Zamora Actif 88 / 110 40% 1 28.10.2026 -
Cristian Carbajal Alianza Lima Actif 110 / 113 40% 3 26.10.2026 -
Nicolás Fernández Maipú Actif 117 / 119 40% 1 26.10.2026 -
Carlos Sarabia Millonarios Actif 110 / 101 40% 1 25.10.2026 -
Oscar Garrido Mitre Actif 103 / 123 40% 1 25.10.2026 -
Walter Tandazo Melgar Actif 109 / 103 40% 2 23.10.2026 -
Carlos Calzadilla Deportivo Tachira Actif 95 / 106 40% 1 23.10.2026 -
Abraham Bahachille Carabobo Actif 91 / 97 40% 2 21.10.2026 -
Nahuel Sena Cerro Actif 95 / 111 40% 1 19.10.2026 -
Martín González San Telmo Actif 89 / 109 40% 1 19.10.2026 -
Lawrence Ennali Houston Dynamo Actif 91 / 124 40% 1 19.10.2026 -
Guillermo Enrique Huracán Actif 106 / 125 40% 1 19.10.2026 -
Agustín Ojeda Chaco For Ever Actif 121 / 109 40% 1 18.10.2026 -
Ramón González Almirante Brown Actif 103 / 112 40% 1 18.10.2026 -
Maico Quiroz Güemes Actif 124 / 125 40% 1 16.10.2026 -
Estanislao Jara Madryn Actif 95 / 110 40% 1 15.10.2026 -
Brian Nievas Chaco For Ever Actif 98 / 109 40% 1 14.10.2026 -
Lucas Quintana Cerro Porteno Actif 107 / 120 40% 2 13.10.2026 -
Mathieu Choinière Los Angeles Football Club Actif 122 / 102 40% 1 13.10.2026 -
Cristóbal Guerra San Marcos de Arica Actif 82 / 88 40% 1 13.10.2026 -
Luis Ruíz Estudiantes de Caracas Actif 116 / 93 40% 1 13.10.2026 -
Diego Sánchez River Plate Actif 100 / 93 40% 1 11.10.2026 -
Emiliano Viveros Argentinos Juniors Actif 116 / 127 40% 1 10.10.2026 -
Nicolás Kozlovsky Oriental Actif 118 / 116 40% 1 10.10.2026 -
Santiago Briñone San Martín Actif 118 / 116 40% 1 09.10.2026 -
Hugo Ancajima Universitario Actif 111 / 123 40% 1 09.10.2026 -
Ricardo Echeverría Santos Laguna Actif 125 / 108 40% 1 07.10.2026 -
Alan Medina Pumas UNAM Actif 110 / 99 40% 1 07.10.2026 -
Santiago Viera Cerrito Actif 89 / 98 40% 2 06.10.2026 -
Thiago Calone All Boys Actif 104 / 114 40% 1 05.10.2026 -
Lautaro Chávez Aldosivi Actif 128 / 107 40% 1 04.10.2026 -
Axel Encinas Union La Calera Actif 94 / 107 40% 1 01.10.2026 -
Vicente Concha Iquique Actif 89 / 87 40% 1 01.10.2026 -
Ángel Zapata Tijuana Actif 80 / 106 40% 1 01.10.2026 -
Mauricio Isais Pachuca Actif 131 / 108 40% 2 27.09.2026 -
Emanuel Carlos Atenas Actif 80 / 100 40% 1 27.09.2026 -
Facundo Perdomo Liverpool Montevideo Actif 116 / 98 40% 1 27.09.2026 -
Kevin Palacios Santos Laguna Actif 132 / 114 40% 2 26.09.2026 -
Braian Aranda Agropecuario Argentino Actif 111 / 105 40% 1 26.09.2026 -
Rodrigo López Pumas UNAM Actif 106 / 108 40% 2 25.09.2026 -
Gonzalo de Mello Liverpool Montevideo Actif 106 / 105 40% 1 25.09.2026 -
Kevin González Trujillanos Actif 86 / 99 40% 3 24.09.2026 -
Iván Franco Libertad Actif 117 / 115 40% 1 23.09.2026 -
Facundo Silvera Montevideo City Torque Actif 103 / 116 40% 1 23.09.2026 -
Santiago Naveda Club America Actif 118 / 125 40% 1 20.09.2026 -
Tomás Castro Ponce Atlanta Actif 111 / 123 40% 1 19.09.2026 -
Cristián Mosquera Bogota Actif 114 / 107 40% 3 18.09.2026 -
Antonio Napolitano Agropecuario Argentino Actif 103 / 124 40% 1 18.09.2026 -
Edgar Zaldívar Atlas Actif 103 / 116 40% 1 18.09.2026 -
Andrés Reyes Atletico Nacional Actif 131 / 118 40% 1 18.09.2026 -
Leandro Méndez Colon Actif 105 / 96 40% 1 15.09.2026 -
Ever Valencia Independiente Medellin Actif 112 / 109 40% 2 14.09.2026 -
Matías Machado Racing Actif 116 / 109 40% 1 14.09.2026 -
Franco Troyansky Audax Italiano Actif 104 / 116 40% 1 13.09.2026 -
Maicol Ferreira Danubio Actif 116 / 99 40% 1 12.09.2026 -
Raul Castillo Puebla Actif 78 / 95 40% 2 10.09.2026 -
Alexander Hernández Racing Actif 88 / 102 40% 2 08.09.2026 -
Martín Sarrafiore O'Higgins Actif 115 / 108 40% 1 08.09.2026 -
Juan Fernando Alfaro Olimpia Actif 107 / 117 40% 1 06.09.2026 -
Rômulo Tigres Actif 120 / 126 40% 1 06.09.2026 -
Sebastián Guzmán Deportes Tolima Actif 119 / 117 40% 1 05.09.2026 -
Bairon Monroy San Marcos de Arica Actif 109 / 84 40% 1 03.09.2026 -
Emiliano Ancheta Nacional Actif 104 / 128 40% 1 03.09.2026 -
Fernando Álvarez Deportivo Cali Actif 99 / 104 40% 1 02.09.2026 -
Juan Millán Danubio Actif 101 / 98 40% 1 02.09.2026 -
Gianfranco Trasante Progreso Actif 104 / 95 40% 1 31.08.2026 -
Jáder Quiñónes Once Caldas Actif 113 / 114 40% 1 30.08.2026 -
Jeremy Márquez Cruz Azul Actif 131 / 138 40% 1 30.08.2026 -
Santiago Simón Toluca Actif 103 / 133 40% 1 30.08.2026 -
Nicolás Gil Leones Actif 130 / 121 40% 1 30.08.2026 -
Fernando Da Rosa Cesar Vallejo Actif 96 / 104 40% 1 26.08.2026 -
Yacouba Meïté Plaza Colonia Actif 78 / 95 40% 1 26.08.2026 -
José Rivera Universitario Actif 125 / 109 40% 1 25.08.2026 -
Efraín Navarro Once Caldas Actif 112 / 114 40% 1 25.08.2026 -
Diego Ulloa Colo-Colo Actif 108 / 103 40% 1 23.08.2026 -
Catriel Cabellos Sporting Cristal Actif 101 / 119 40% 1 23.08.2026 -
Jesús Mendieta Alianza Atletico Actif 102 / 91 40% 1 23.08.2026 -
Cristian Tovar America de Cali Actif 115 / 101 40% 1 20.08.2026 -
Santiago Cuero Fortaleza CEIF Actif 116 / 113 40% 2 17.08.2026 -
José Cadenas Zulia Actif 107 / 86 40% 1 17.08.2026 -
Nicolás Castro Toluca Actif 128 / 115 40% 1 16.08.2026 -
Santiago Ramírez Deportivo Maldonado Actif 110 / 107 40% 1 16.08.2026 -
Lucas Rodríguez Albion Actif 130 / 111 40% 1 14.08.2026 -
Carlos Romaña Atletico Bucaramanga Actif 97 / 111 40% 1 14.08.2026 -
Bastián Yáñez O'Higgins Actif 123 / 113 40% 1 09.08.2026 -
Braian Galván Oriental Actif 117 / 107 40% 1 09.08.2026 -
Alan Acevedo Fenix Actif 92 / 85 40% 1 08.08.2026 -
Ignacio Núñez Union Espanola Actif 99 / 98 40% 1 08.08.2026 -
Agustín Araujo Trujillanos Actif 108 / 115 40% 1 06.08.2026 -
Éwil Murillo Santa Fe Actif 103 / 124 40% 1 04.08.2026 -